DW6885 Weather Reports


Display with metric or nautical units.
time (UTC)temp
F
wind
direction
speed
MPH
gust
MPH
rain 1hr
in
rain 24hr
in
rain mn
in
humidity
%
barometer
mb
20140903020549 72 202 0.0 1.0 0.00 0.04 0.04 97 1006.0
20140903020405 72 202 0.0 1.0 0.00 0.04 0.04 97 1006.0
20140903014902 72 228 0.0 1.0 0.00 0.04 0.04 97 1006.2
20140903013549 72 228 0.0 1.0 0.00 0.04 0.04 97 1006.2
20140903013405 71 228 0.0 1.0 0.00 0.04 0.04 97 1006.2
20140903012003 71 196 0.0 1.0 0.00 0.04 0.04 97 1006.4
20140903011549 71 196 0.0 1.0 0.00 0.04 0.04 96 1006.5
20140903010549 71 196 0.0 0.0 0.00 0.04 0.04 95 1006.6
20140903010408 71 196 0.0 0.0 0.00 0.04 0.04 95 1006.6
20140903004903 72 196 0.0 0.0 0.00 0.04 0.04 95 1006.7
20140903003550 73 196 0.0 0.0 0.00 0.04 0.04 94 1006.8
20140903003303 72 196 0.0 0.0 0.00 0.04 0.04 95 1006.8
20140903002549 73 196 0.0 0.0 0.00 0.04 0.04 94 1006.7
20140903001803 73 196 0.0 0.0 0.00 0.04 0.04 94 1006.7
20140903000551 74 196 0.0 0.0 0.00 0.04 0.04 94 1006.9
20140903000307 74 196 0.0 0.0 0.00 0.04 0.04 94 1006.9
20140902234902 74 196 0.0 0.0 0.00 0.04 0.04 94 1006.8
20140902234552 75 196 0.0 0.0 0.00 0.04 0.04 94 1006.8
20140902233306 75 196 0.0 0.0 0.00 0.04 0.04 93 1006.8
20140902231805 75 196 0.0 0.0 0.00 0.04 0.04 92 1006.8
20140902230303 76 196 0.0 0.0 0.00 0.04 0.04 90 1007.0
20140902225550 78 196 0.0 0.0 0.00 0.04 0.04 89 1007.0
20140902224804 78 196 0.0 0.0 0.00 0.04 0.04 89 1007.0
20140902223549 78 196 0.0 0.0 0.00 0.04 0.04 88 1007.1
20140902223208 78 196 0.0 0.0 0.00 0.04 0.04 87 1007.1
20140902221708 78 298 0.0 1.0 0.00 0.04 0.04 86 1007.1
20140902221551 79 298 0.0 1.0 0.00 0.04 0.04 86 1007.4
20140902220207 79 298 0.0 2.0 0.00 0.04 0.04 86 1007.4
20140902214705 79 316 0.0 0.0 0.00 0.04 0.04 86 1007.6
20140902214550 80 316 0.0 0.0 0.00 0.04 0.04 85 1007.6
20140902213549 80 316 0.0 1.0 0.00 0.04 0.04 82 1007.7
20140902213205 80 316 0.0 2.0 0.00 0.04 0.04 82 1007.8
20140902212549 82 286 1.0 2.0 0.00 0.04 0.04 80 1007.9
20140902211704 82 304 0.0 2.0 0.00 0.04 0.04 79 1007.8
20140902211550 83 297 0.0 2.0 0.00 0.04 0.04 79 1007.8
20140902210205 82 175 0.0 2.0 0.00 0.04 0.04 76 1007.6
20140902204606 82 182 0.0 3.0 0.00 0.04 0.04 79 1007.7
20140902204550 82 318 1.0 3.0 0.00 0.04 0.04 80 1007.7
20140902203550 82 292 0.0 3.0 0.00 0.04 0.04 81 1007.8
20140902203107 81 329 0.0 3.0 0.00 0.04 0.04 82 1007.9
20140902202549 81 309 1.0 3.0 0.00 0.04 0.04 80 1007.9
20140902201607 81 291 0.0 3.0 0.00 0.04 0.04 83 1007.8
20140902200108 79 180 0.0 5.0 0.00 0.04 0.04 85 1008.0
20140902194605 78 184 0.0 6.0 0.00 0.04 0.04 89 1008.1
20140902194550 78 184 1.0 5.0 0.00 0.04 0.04 88 1008.0
20140902193550 78 214 1.0 3.0 0.01 0.04 0.04 89 1008.3
20140902193104 77 207 0.0 3.0 0.01 0.04 0.04 90 1008.3
20140902192549 77 248 1.0 2.0 0.02 0.04 0.04 90 1008.3
20140902191704 76 175 0.0 2.0 0.03 0.04 0.04 91 1008.6
20140902190109 74 175 0.0 1.0 0.04 0.04 0.04 95 1008.6
20140902184550 74 169 0.0 3.0 0.04 0.04 0.04 93 1009.1
20140902184503 74 190 0.0 3.0 0.04 0.04 0.04 93 1009.1
20140902183550 74 292 0.0 2.0 0.03 0.03 0.03 90 1009.4
20140902183002 75 292 0.0 2.0 0.02 0.02 0.02 88 1009.6
20140902182550 76 292 0.0 5.0 0.02 0.02 0.02 86 1009.6
20140902181552 78 73 2.0 6.0 0.00 0.00 0.00 80 1009.4
20140902181506 78 323 1.0 6.0 0.00 0.00 0.00 80 1009.4
20140902180009 82 181 2.0 4.0 0.00 0.00 0.00 72 1009.3
20140902174501 84 9 1.0 7.0 0.00 0.00 0.00 67 1008.9
20140902173008 84 144 0.0 5.0 0.00 0.00 0.00 67 1008.9
20140902172550 85 322 2.0 5.0 0.00 0.00 0.00 70 1009.0
20140902171552 84 337 1.0 6.0 0.00 0.00 0.00 74 1009.0
20140902171510 83 337 0.0 6.0 0.00 0.00 0.00 73 1009.0
20140902170550 84 200 3.0 8.0 0.00 0.00 0.00 69 1009.2
20140902165907 83 142 0.0 3.0 0.00 0.00 0.00 72 1009.2
20140902165549 83 168 0.0 3.0 0.00 0.00 0.00 73 1009.3
20140902164407 82 229 0.0 4.0 0.00 0.00 0.00 74 1009.6
20140902163549 83 284 0.0 3.0 0.00 0.00 0.00 74 1009.6
20140902162907 82 236 0.0 3.0 0.00 0.00 0.00 73 1009.7
20140902161552 82 106 1.0 5.0 0.00 0.00 0.00 75 1009.8
20140902161413 82 106 0.0 5.0 0.00 0.00 0.00 75 1009.8
20140902160549 83 276 2.0 5.0 0.00 0.00 0.00 72 1010.2
20140902155902 82 355 0.0 3.0 0.00 0.00 0.00 74 1010.2
20140902155549 82 212 1.0 5.0 0.00 0.00 0.00 74 1010.3
20140902154406 82 78 1.0 5.0 0.00 0.00 0.00 75 1010.4
20140902153550 82 300 2.0 6.0 0.00 0.00 0.00 74 1010.5
20140902152904 81 310 1.0 6.0 0.00 0.00 0.00 74 1010.7
20140902151550 81 24 2.0 6.0 0.00 0.00 0.00 76 1010.7
20140902151309 80 140 2.0 6.0 0.00 0.00 0.00 76 1010.7
20140902150551 80 156 2.0 6.0 0.00 0.00 0.00 78 1010.7
20140902145806 79 330 1.0 5.0 0.00 0.00 0.00 79 1010.7
20140902145550 80 229 1.0 3.0 0.00 0.00 0.00 82 1010.7
20140902144552 79 139 0.0 5.0 0.00 0.00 0.00 83 1010.8
20140902144302 79 138 0.0 5.0 0.00 0.00 0.00 83 1010.9
20140902143549 78 338 1.0 3.0 0.00 0.00 0.00 84 1011.2
20140902142807 77 184 0.0 5.0 0.00 0.00 0.00 86 1011.2
20140902141549 76 116 2.0 5.0 0.00 0.00 0.00 88 1011.2
20140902141402 76 161 2.0 5.0 0.00 0.00 0.00 88 1011.1
20140902135806 74 173 0.0 3.0 0.00 0.00 0.00 93 1011.2
20140902135549 74 169 1.0 3.0 0.00 0.00 0.00 93 1011.4
20140902134302 73 26 0.0 5.0 0.00 0.00 0.00 95 1011.5
20140902133549 73 163 1.0 3.0 0.00 0.00 0.00 96 1011.6
20140902132705 72 271 0.0 3.0 0.00 0.00 0.00 97 1011.7
20140902132550 72 186 1.0 2.0 0.00 0.00 0.00 98 1011.7
20140902131204 71 200 0.0 3.0 0.00 0.00 0.00 99 1011.9
20140902130550 71 185 1.0 3.0 0.00 0.00 0.00 99 1011.8
20140902125709 71 180 0.0 6.0 0.00 0.00 0.00 99 1011.8
20140902125550 71 178 1.0 6.0 0.00 0.00 0.00 99 1011.8
20140902124308 70 79 0.0 2.0 0.00 0.00 0.00 99 1011.7
20140902122705 70 257 0.0 2.0 0.00 0.00 0.00 99 1011.5
20140902122550 71 241 0.0 2.0 0.00 0.00 0.00 99 1011.5
20140902121303 70 195 0.0 3.0 0.00 0.00 0.00 99 1011.7
20140902120551 70 42 0.0 3.0 0.00 0.00 0.00 99 1011.7
20140902115705 70 195 0.0 3.0 0.00 0.00 0.00 100 1011.5
20140902114549 70 77 0.0 0.0 0.00 0.00 0.00 99 1011.4
20140902114104 69 77 0.0 0.0 0.00 0.00 0.00 99 1011.4
20140902112602 69 77 0.0 2.0 0.00 0.00 0.00 100 1011.4
20140902111105 67 67 0.0 0.0 0.00 0.00 0.00 99 1011.3
20140902105605 67 67 0.0 0.0 0.00 0.00 0.00 99 1011.2
20140902105549 67 67 0.0 0.0 0.00 0.00 0.00 99 1011.2
20140902104107 67 67 0.0 0.0 0.00 0.00 0.00 99 1011.2
20140902102602 66 67 0.0 0.0 0.00 0.00 0.00 99 1010.9
20140902102549 67 67 0.0 1.0 0.00 0.00 0.00 99 1010.9
20140902101550 66 67 0.0 1.0 0.00 0.00 0.00 99 1010.9
20140902101105 66 67 0.0 0.0 0.00 0.00 0.00 99 1010.9
20140902100551 66 67 0.0 0.0 0.00 0.00 0.00 99 1010.9
20140902095550 65 67 0.0 0.0 0.00 0.00 0.00 99 1010.8
20140902095504 65 67 0.0 0.0 0.00 0.00 0.00 99 1010.8
20140902094550 65 67 0.0 0.0 0.00 0.00 0.00 99 1010.7
20140902094006 65 67 0.0 0.0 0.00 0.00 0.00 99 1010.7
20140902093549 65 67 0.0 0.0 0.00 0.00 0.00 99 1010.6
20140902092503 64 67 0.0 0.0 0.00 0.00 0.00 99 1010.6
20140902091549 65 67 0.0 0.0 0.00 0.00 0.00 99 1010.7
20140902091010 64 67 0.0 0.0 0.00 0.00 0.00 99 1010.7
20140902090550 64 67 0.0 0.0 0.00 0.00 0.00 99 1010.8
20140902085549 64 67 0.0 0.0 0.00 0.00 0.00 99 1010.7
20140902085505 64 67 0.0 0.0 0.00 0.00 0.00 99 1010.7
20140902084550 64 67 0.0 0.0 0.00 0.00 0.00 99 1010.8
20140902084005 63 67 0.0 0.0 0.00 0.00 0.00 99 1010.7
20140902083549 64 67 0.0 0.0 0.00 0.00 0.00 99 1010.7
20140902082505 63 67 0.0 0.0 0.00 0.00 0.00 99 1010.8
20140902081551 63 67 0.0 0.0 0.00 0.00 0.00 98 1010.9
20140902081002 63 67 0.0 0.0 0.00 0.00 0.00 98 1010.9
20140902080549 63 67 0.0 0.0 0.00 0.00 0.00 98 1010.8
20140902075406 63 67 0.0 0.0 0.00 0.00 0.00 99 1010.9
20140902074550 63 67 0.0 0.0 0.00 0.00 0.00 98 1010.9
20140902073904 63 67 0.0 0.0 0.00 0.00 0.00 98 1011.0
20140902073550 63 67 0.0 0.0 0.00 0.00 0.00 98 1011.1
20140902072404 63 67 0.0 0.0 0.00 0.00 0.00 98 1011.1
20140902071612 63 67 0.0 0.0 0.00 0.00 0.00 98 1011.2
20140902070904 63 67 0.0 0.0 0.00 0.00 0.00 98 1011.1
20140902065403 63 67 0.0 0.0 0.00 0.00 0.00 98 1011.2
20140902064701 63 67 0.0 0.0 0.00 0.00 0.00 98 1011.2
20140902063905 63 67 0.0 0.0 0.00 0.00 0.00 98 1011.2
20140902063706 64 67 0.0 0.0 0.00 0.00 0.00 98 1011.2
20140902062402 63 67 0.0 0.0 0.00 0.00 0.00 98 1011.3
20140902060904 63 67 0.0 0.0 0.00 0.00 0.00 98 1011.5
20140902055402 63 67 0.0 0.0 0.00 0.00 0.00 98 1011.6
20140902054603 64 67 0.0 0.0 0.00 0.00 0.00 98 1011.7
20140902053807 64 67 0.0 0.0 0.00 0.00 0.00 98 1011.8
20140902053602 64 67 0.0 0.0 0.00 0.00 0.00 98 1011.9
20140902052302 64 67 0.0 0.0 0.00 0.00 0.00 98 1012.0
20140902051604 64 67 0.0 0.0 0.00 0.00 0.00 98 1012.0
20140902050802 64 67 0.0 0.0 0.00 0.00 0.00 98 1012.2
20140902045606 64 67 0.0 0.0 0.00 0.00 0.00 97 1012.4
20140902045301 64 67 0.0 0.0 0.00 0.01 0.00 97 1012.3
20140902043802 64 67 0.0 0.0 0.00 0.01 0.00 98 1012.5
20140902042402 64 67 0.0 0.0 0.00 0.01 0.00 98 1012.6
20140902041558 65 67 0.0 0.0 0.00 0.01 0.00 97 1012.5
20140902040807 64 67 0.0 0.0 0.00 0.01 0.00 97 1012.6
20140902040703 65 67 0.0 0.0 0.00 0.01 0.00 97 1012.5
20140902035549 65 67 0.0 0.0 0.00 0.01 0.01 97 1012.6
20140902035307 64 67 0.0 0.0 0.00 0.01 0.01 97 1012.6
20140902033804 65 67 0.0 0.0 0.00 0.01 0.01 97 1012.7
20140902032552 65 67 0.0 0.0 0.00 0.01 0.01 97 1012.6
20140902032303 65 67 0.0 0.0 0.00 0.01 0.01 97 1012.6
20140902031551 65 67 0.0 0.0 0.00 0.01 0.01 97 1012.6
20140902030702 65 67 0.0 0.0 0.00 0.01 0.01 96 1012.6
20140902030549 65 67 0.0 0.0 0.00 0.01 0.01 96 1012.6
20140902025207 65 67 0.0 0.0 0.00 0.01 0.01 97 1012.4
20140902023704 65 67 0.0 0.0 0.00 0.01 0.01 96 1012.3
20140902023548 66 67 0.0 0.0 0.00 0.01 0.01 96 1012.4
20140902022549 66 67 0.0 0.0 0.00 0.01 0.01 96 1012.4
20140902022302 66 67 0.0 0.0 0.00 0.01 0.01 96 1012.3